Weather History for Lancaster, PA

Change the Weather History Date:

Saturday, March 30, 2013

  Actual Average Record
Temperature  
Mean Temperature 42 °F -  
Max Temperature 55 °F 61 °F 86 °F (1998)
Min Temperature 28 °F 39 °F 24 °F (2008)
Degree Days  
Heating Degree Days 24    
Moisture  
Dew Point 25 °F    
Average Humidity 51    
Maximum Humidity 82    
Minimum Humidity 27    
Precipitation  
Precipitation 0.00 in - - ()
Sea Level Pressure  
Sea Level Pressure 30.16 in    
Wind  
Wind Speed 4 mph (West)    
Max Wind Speed 13 mph    
Max Gust Speed -    
Visibility 9 miles    
Events      
Averages and records for this station are not official NWS values.
T = Trace of Precipitation, MM = Missing Value Source: NWS Daily Summary

Daily Weather History Graph

Daily Weather History Graph

Search for Another Location

Airport:

Trip Planner

Search our weather history database for the weather conditions in past years. The results will help you decide how hot, cold, wet, or windy it might be!

Date:

Astronomy

Mar. 30, 2013 Rise Set
Actual Time 6:51 AM EDT 7:27 PM EDT
Civil Twilight 6:24 AM EDT 7:55 PM EDT
Nautical Twilight 5:52 AM EDT 8:27 PM EDT
Astronomical Twilight 5:19 AM EDT 9:00 PM EDT
Moon 11:32 PM EDT (3/30) 8:45 AM EDT (3/30)
Length of Visible Light 13h 30m
Length of Day
12h 35m
Waning Gibbous, 86% of the Moon is Illuminated
Mar 30
Waning Gibbous
Apr 3
Last Quarter
Apr 10
New
Apr 18
First Quarter
Apr 25
Full

Hourly Weather History & Observations

Time (EDT) Temp. Windchill Dew Point Humidity Pressure Visibility Wind Dir Wind Speed Gust Speed Precip Events Conditions
12:53 AM 37.9 °F 35.5 °F 26.1 °F 62% 30.18 in 10.0 mi WNW 3.5 mph - N/A   Partly Cloudy
1:53 AM 34.0 °F 29.8 °F 26.1 °F 73% 30.18 in 10.0 mi WNW 4.6 mph - N/A   Clear
2:53 AM 34.0 °F 29.8 °F 25.0 °F 70% 30.18 in 10.0 mi WSW 4.6 mph - N/A   Clear
3:53 AM 34.0 °F 29.8 °F 26.1 °F 73% 30.17 in 10.0 mi West 4.6 mph - N/A   Clear
4:53 AM 32.0 °F 25.6 °F 25.0 °F 75% 30.17 in 10.0 mi WNW 6.9 mph - N/A   Clear
5:53 AM 30.0 °F 24.1 °F 24.1 °F 79% 30.18 in 8.0 mi WNW 5.8 mph - N/A   Clear
6:53 AM 28.9 °F 25.2 °F 24.1 °F 82% 30.19 in 6.0 mi WNW 3.5 mph - N/A   Haze
7:53 AM 32.0 °F 28.7 °F 27.0 °F 82% 30.21 in 5.0 mi WSW 3.5 mph - N/A   Haze
8:53 AM 37.9 °F - 28.9 °F 70% 30.22 in 7.0 mi Calm Calm - N/A   Clear
9:53 AM 45.0 °F 43.5 °F 28.9 °F 53% 30.21 in 10.0 mi West 3.5 mph - N/A   Clear
10:53 AM 48.9 °F - 28.0 °F 44% 30.21 in 10.0 mi Variable 3.5 mph - N/A   Clear
11:53 AM 50.0 °F - 25.0 °F 38% 30.20 in 10.0 mi West 6.9 mph - N/A   Clear
12:53 PM 53.1 °F - 26.1 °F 35% 30.18 in 10.0 mi West 12.7 mph - N/A   Partly Cloudy
1:53 PM 54.0 °F - 24.1 °F 31% 30.15 in 10.0 mi Variable 3.5 mph - N/A   Partly Cloudy
2:53 PM 55.0 °F - 23.0 °F 29% 30.13 in 10.0 mi WSW 11.5 mph - N/A   Scattered Clouds
3:53 PM 55.0 °F - 24.1 °F 30% 30.12 in 10.0 mi WSW 8.1 mph - N/A   Partly Cloudy
4:53 PM 55.0 °F - 21.9 °F 28% 30.11 in 10.0 mi WSW 4.6 mph - N/A   Clear
5:53 PM 55.0 °F - 21.9 °F 28% 30.11 in 10.0 mi West 6.9 mph - N/A   Clear
6:53 PM 53.1 °F - 21.9 °F 30% 30.11 in 10.0 mi West 5.8 mph - N/A   Clear
7:53 PM 53.1 °F - 19.9 °F 27% 30.11 in 10.0 mi Calm Calm - N/A   Clear
8:53 PM 45.0 °F - 23.0 °F 42% 30.12 in 10.0 mi Calm Calm - N/A   Clear
9:53 PM 45.0 °F - 21.9 °F 40% 30.13 in 10.0 mi Calm Calm - N/A   Clear
10:53 PM 41.0 °F - 24.1 °F 51% 30.13 in 10.0 mi Calm Calm - N/A   Clear
11:53 PM 39.9 °F 36.7 °F 24.1 °F 53% 30.12 in 10.0 mi East 4.6 mph - N/A   Clear